San Antonio Stinson, TX

2:22 AM CST on November 12, 2019 (GMT -0600)
Stinson Municipal

Weather History for KSSF - October, 2019

Change the Weather History Date:

Monday, October 21, 2019

  Actual Average Record
Temperature  
Mean Temperature 74 °F -  
Max Temperature 81 °F 77 °F 91 °F (2015)
Min Temperature 63 °F 58 °F 43 °F (1999)
Cooling Degree Days 8    
Growing Degree Days 24 (Base 50)    
Moisture  
Dew Point 51 °F    
Average Humidity 54    
Maximum Humidity 100    
Minimum Humidity 19    
Precipitation  
Precipitation 0.12 in - - ()
Sea Level Pressure  
Sea Level Pressure 29.82 in    
Wind  
Wind Speed 7 mph ()    
Max Wind Speed 16 mph    
Max Gust Speed 26 mph    
Visibility 9.4 miles    
Events Rain    
Averages and records for this station are not official NWS values.
T = Trace of Precipitation, MM = Missing Value Source: Averaged Metar Reports

Daily Weather History Graph

Daily Weather History Graph

Search for Another Location

Airport or City:

Astronomy

Oct. 21, 2019 Rise Set
Actual Time 7:38 AM CDT 6:57 PM CDT
Civil Twilight 7:14 AM CDT 7:21 PM CDT
Nautical Twilight 6:47 AM CDT 7:49 PM CDT
Astronomical Twilight 6:19 AM CDT 8:17 PM CDT
Moon 12:26 AM CDT (10/21) 2:42 PM CDT (10/21)
Length of Visible Light 12h 06m
Length of Day
11h 18m
Waning Gibbous, 48% of the Moon is Illuminated
Oct 21
Waning Gibbous
Oct 27
New
Nov 4
First Quarter
Nov 12
Full
Nov 19
Last Quarter

Hourly Weather History & Observations

Time (CDT) Temp. Dew Point Humidity Pressure Visibility Wind Dir Wind Speed Gust Speed Precip Events Conditions
12:53 AM 78.1 °F 75.0 °F 90% 29.67 in 10.0 mi SSE 8.1 mph - N/A   Overcast
1:53 AM 78.1 °F 75.0 °F 90% 29.66 in 10.0 mi South 6.9 mph - N/A   Overcast
2:53 AM 78.1 °F 75.0 °F 90% 29.68 in 10.0 mi Calm Calm - N/A   Overcast
3:53 AM 75.9 °F 75.0 °F 97% 29.66 in 7.0 mi ESE 4.6 mph - 0.02 in Rain Light Rain
4:17 AM 75.9 °F 75.9 °F 100% 29.74 in 6.0 mi North 9.2 mph - 0.00 in   Mostly Cloudy
4:53 AM 66.0 °F 63.0 °F 90% 29.72 in 3.0 mi NNW 10.4 mph - 0.10 in Rain Heavy Rain
5:00 AM 66.0 °F 63.0 °F 90% 29.76 in 9.0 mi Variable 3.5 mph - 0.00 in Rain Light Rain
5:53 AM 66.9 °F 64.0 °F 90% 29.73 in 10.0 mi ESE 3.5 mph - 0.00 in   Overcast
6:53 AM 66.0 °F 63.0 °F 90% 29.74 in 10.0 mi NNW 5.8 mph - N/A   Mostly Cloudy
7:53 AM 66.9 °F 59.0 °F 76% 29.77 in 10.0 mi North 9.2 mph 17.3 mph N/A   Clear
8:53 AM 68.0 °F 55.9 °F 65% 29.81 in 10.0 mi North 10.4 mph 24.2 mph N/A   Scattered Clouds
9:53 AM 72.0 °F 48.0 °F 43% 29.85 in 10.0 mi NNE 16.1 mph 23.0 mph N/A   Clear
10:53 AM 73.9 °F 42.1 °F 32% 29.87 in 10.0 mi NNE 13.8 mph 26.5 mph N/A   Clear
11:53 AM 75.9 °F 41.0 °F 29% 29.88 in 10.0 mi NNE 11.5 mph 21.9 mph N/A   Clear
12:53 PM 78.1 °F 41.0 °F 27% 29.86 in 10.0 mi NNE 9.2 mph 17.3 mph N/A   Clear
1:53 PM 79.0 °F 41.0 °F 26% 29.84 in 10.0 mi North 11.5 mph 19.6 mph N/A   Clear
2:53 PM 81.0 °F 39.9 °F 23% 29.83 in 10.0 mi NE 8.1 mph - N/A   Clear
3:53 PM 81.0 °F 35.1 °F 19% 29.83 in 10.0 mi NE 6.9 mph - N/A   Clear
4:53 PM 81.0 °F 36.0 °F 20% 29.83 in 10.0 mi NNE 9.2 mph - N/A   Clear
5:53 PM 79.0 °F 36.0 °F 21% 29.83 in 10.0 mi ENE 5.8 mph - N/A   Clear
6:53 PM 73.9 °F 37.0 °F 26% 29.86 in 10.0 mi North 4.6 mph - N/A   Clear
7:53 PM 71.1 °F 39.0 °F 31% 29.91 in 10.0 mi NE 4.6 mph - N/A   Clear
8:53 PM 69.1 °F 39.0 °F 33% 29.94 in 10.0 mi East 5.8 mph - N/A   Clear
9:53 PM 66.9 °F 37.0 °F 33% 29.96 in 10.0 mi East 6.9 mph - N/A   Clear
10:53 PM 66.0 °F 37.9 °F 36% 29.99 in 10.0 mi ENE 8.1 mph - N/A   Clear
11:53 PM 63.0 °F 39.9 °F 43% 30.00 in 10.0 mi NE 6.9 mph - N/A   Clear